Change the Weather History Date:

Friday, November 23, 2012

  Actual Average Record
Temperature  
Mean Temperature 44 °F -  
Max Temperature 50 °F 46 °F 51 °F (1999)
Min Temperature 35 °F 35 °F 28 °F (2001)
Degree Days  
Heating Degree Days 22    
Moisture  
Dew Point 40 °F    
Average Humidity 90    
Maximum Humidity 100    
Minimum Humidity 76    
Precipitation  
Precipitation 0.00 in 0.08 in - ()
Sea Level Pressure  
Sea Level Pressure 29.81 in    
Wind  
Wind Speed 6 mph ()    
Max Wind Speed 10 mph    
Max Gust Speed -    
Visibility 6.2 miles    
Events      
Averages and records for this station are not official NWS values.
T = Trace of Precipitation, MM = Missing Value Source: Averaged Metar Reports

Daily Weather History Graph

Daily Weather History Graph

Search for Another Location

Airport or City:

Trip Planner

Search our weather history database for the weather conditions in past years. The results will help you decide how hot, cold, wet, or windy it might be!

Date:

Astronomy

Nov. 23, 2012 Rise Set
Actual Time 7:42 AM GMT 4:03 PM GMT
Civil Twilight 7:03 AM GMT 4:42 PM GMT
Nautical Twilight 6:21 AM GMT 5:25 PM GMT
Astronomical Twilight 5:40 AM GMT 6:06 PM GMT
Moon 1:40 PM GMT (11/23) 2:14 AM GMT (11/23)
Length of Visible Light 9h 39m
Length of Day
8h 20m
Waxing Gibbous, 78% of the Moon is Illuminated
Nov 23
Waxing Gibbous
Nov 28
Full
Dec 6
Last Quarter
Dec 13
New
Dec 20
First Quarter

Hourly Weather History & Observations

Time (GMT) Temp. Windchill Dew Point Humidity Pressure Visibility Wind Dir Wind Speed Gust Speed Precip Events Conditions
12:20 AM 42.8 °F 37.5 °F 41.0 °F 93% 29.62 in 6.2 mi SSW 9.2 mph - N/A   Partly Cloudy
12:50 AM 42.8 °F 37.0 °F 41.0 °F 93% 29.62 in 6.2 mi SSW 10.4 mph - N/A   Partly Cloudy
1:20 AM 42.8 °F 37.0 °F 41.0 °F 93% 29.62 in 6.2 mi SW 10.4 mph - N/A   Partly Cloudy
1:50 AM 42.8 °F 37.5 °F 41.0 °F 93% 29.62 in 6.2 mi SSW 9.2 mph - N/A   Partly Cloudy
2:20 AM 42.8 °F 39.3 °F 41.0 °F 93% 29.65 in - SW 5.8 mph - N/A   Clear
2:50 AM 42.8 °F 38.6 °F 41.0 °F 93% 29.65 in 6.2 mi SSW 6.9 mph - N/A   Partly Cloudy
3:20 AM 42.8 °F 40.1 °F 41.0 °F 93% 29.68 in 6.2 mi SSW 4.6 mph - N/A   Partly Cloudy
3:50 AM 41.0 °F 37.1 °F 39.2 °F 93% 29.68 in 6.2 mi SW 5.8 mph - N/A   Unknown
4:20 AM 41.0 °F 37.1 °F 39.2 °F 93% 29.68 in 6.2 mi SW 5.8 mph - N/A   Unknown
4:50 AM 41.0 °F 39.0 °F 39.2 °F 93% 29.68 in 6.2 mi Variable 3.5 mph - N/A   Unknown
5:20 AM 39.2 °F 35.9 °F 39.2 °F 100% 29.71 in - SW 4.6 mph - N/A   Clear
5:50 AM 41.0 °F 38.0 °F 39.2 °F 93% 29.71 in - SW 4.6 mph - N/A   Clear
6:20 AM 41.0 °F 38.0 °F 39.2 °F 93% 29.71 in - WSW 4.6 mph - N/A   Clear
6:50 AM 41.0 °F 36.4 °F 39.2 °F 93% 29.74 in - SW 6.9 mph - N/A   Clear
7:20 AM 37.4 °F 33.8 °F 37.4 °F 100% 29.74 in - SSW 4.6 mph - N/A   Clear
7:50 AM 39.2 °F 35.9 °F 37.4 °F 93% 29.77 in - SSW 4.6 mph - N/A   Clear
8:20 AM 37.4 °F 34.9 °F 37.4 °F 100% 29.77 in - Variable 3.5 mph - N/A   Clear
8:50 AM 39.2 °F 37.0 °F 39.2 °F 100% 29.80 in - Variable 3.5 mph - N/A   Clear
9:20 AM 42.8 °F 38.0 °F 41.0 °F 93% 29.80 in - SW 8.1 mph - N/A   Clear
9:50 AM 42.8 °F 37.5 °F 41.0 °F 93% 29.80 in - SW 9.2 mph - N/A   Clear
10:20 AM 44.6 °F 40.7 °F 41.0 °F 87% 29.83 in - SW 6.9 mph - N/A   Clear
10:50 AM 46.4 °F 43.5 °F 42.8 °F 87% 29.83 in - SW 5.8 mph - N/A   Clear
11:20 AM 46.4 °F 42.9 °F 42.8 °F 87% 29.83 in - SSW 6.9 mph - N/A   Clear
11:50 AM 48.2 °F - 42.8 °F 82% 29.83 in 6.2 mi SSW 9.2 mph - N/A   Partly Cloudy
12:20 PM 48.2 °F - 42.8 °F 82% 29.83 in 6.2 mi SW 9.2 mph - N/A   Partly Cloudy
12:50 PM 50.0 °F - 42.8 °F 76% 29.86 in 6.2 mi SW 6.9 mph - N/A   Partly Cloudy
1:20 PM 50.0 °F - 42.8 °F 76% 29.86 in 6.2 mi SW 9.2 mph - N/A   Partly Cloudy
1:50 PM 50.0 °F - 42.8 °F 76% 29.86 in 6.2 mi SSW 8.1 mph - N/A   Partly Cloudy
2:20 PM 48.2 °F - 42.8 °F 82% 29.86 in 6.2 mi SSW 9.2 mph - N/A   Scattered Clouds
2:50 PM 48.2 °F - 42.8 °F 82% 29.86 in 6.2 mi SSW 8.1 mph - N/A   Scattered Clouds
3:20 PM 46.4 °F 44.3 °F 41.0 °F 81% 29.86 in - SSW 4.6 mph - N/A   Clear
3:50 PM 46.4 °F 42.9 °F 41.0 °F 81% 29.86 in - SW 6.9 mph - N/A   Clear
4:20 PM 44.6 °F 40.2 °F 41.0 °F 87% 29.86 in - SW 8.1 mph - N/A   Clear
4:50 PM 44.6 °F 41.4 °F 39.2 °F 81% 29.89 in 6.2 mi SW 5.8 mph - N/A   Partly Cloudy
5:20 PM 44.6 °F 41.4 °F 39.2 °F 81% 29.89 in 6.2 mi SSW 5.8 mph - N/A   Scattered Clouds
5:50 PM 42.8 °F 39.3 °F 39.2 °F 87% 29.89 in - SSW 5.8 mph - N/A   Clear
6:20 PM 42.8 °F 38.6 °F 39.2 °F 87% 29.89 in - SW 6.9 mph - N/A   Clear
6:50 PM 41.0 °F 37.1 °F 39.2 °F 93% 29.92 in - SW 5.8 mph - N/A   Clear
7:20 PM 42.8 °F 38.6 °F 39.2 °F 87% 29.92 in - SW 6.9 mph - N/A   Clear
7:50 PM 41.0 °F 36.4 °F 39.2 °F 93% 29.92 in - SW 6.9 mph - N/A   Clear
8:20 PM 41.0 °F 37.1 °F 39.2 °F 93% 29.92 in - SW 5.8 mph - N/A   Clear
8:50 PM 42.8 °F 38.6 °F 39.2 °F 87% 29.92 in - SW 6.9 mph - N/A   Clear
9:20 PM 41.0 °F 37.1 °F 39.2 °F 93% 29.95 in - SW 5.8 mph - N/A   Clear
9:50 PM 41.0 °F 38.0 °F 39.2 °F 93% 29.95 in - SSW 4.6 mph - N/A   Clear
10:20 PM 41.0 °F 39.0 °F 39.2 °F 93% 29.95 in - Variable 3.5 mph - N/A   Clear
10:50 PM 37.4 °F - 37.4 °F 100% 29.95 in - Variable 2.3 mph - N/A   Clear
11:20 PM 37.4 °F - 37.4 °F 100% 29.98 in - Variable 2.3 mph - N/A   Clear
11:50 PM 35.6 °F 32.8 °F 35.6 °F 100% 29.98 in - SSE 3.5 mph - N/A   Clear